This is the latest recevied weather packets stored in our database for station/object CQ0XSM-11. If no packets are shown the sender has not sent any weather packets the latest 10 day(s).
| Time | Temp. | Humidity | Pressure | Rain* | Wind** | Luminosity | Snow |
|---|---|---|---|---|---|---|---|
| 1778058201 | 12.78° C | 79% | 994.5 hPa | 0 mm | - | - | - |
| 1778057909 | 12.22° C | 84% | 994.5 hPa | 0 mm | - | - | - |
| 1778057604 | 11.67° C | 85% | 994.6 hPa | 0 mm | - | - | - |
| 1778057305 | 11.67° C | 86% | 994.7 hPa | 0 mm | - | - | - |
| 1778056992 | 11.67° C | 86% | 994.6 hPa | 0 mm | - | - | - |
| 1778056715 | 11.67° C | 89% | 994.6 hPa | 0 mm | - | - | - |
| 1778056395 | 11.11° C | 88% | 994.6 hPa | 0 mm | - | - | - |
| 1778056081 | 11.11° C | 92% | 994.6 hPa | 0 mm | - | - | - |
| 1778055801 | 11.11° C | 91% | 994.7 hPa | 0 mm | - | - | - |
| 1778055482 | 11.11° C | 96% | 994.7 hPa | 0 mm | - | - | - |
| 1778055170 | 10.56° C | 97% | 994.7 hPa | 0 mm | - | - | - |
| 1778054903 | 10.56° C | 100% | 994.7 hPa | 0 mm | - | - | - |
| 1778054563 | 10° C | 100% | 994.6 hPa | 0 mm | - | - | - |
| 1778054269 | 10° C | 100% | 994.7 hPa | 0 mm | - | - | - |
| 1778053960 | 9.44° C | 100% | 994.7 hPa | 0 mm | - | - | - |
| 1778053679 | 9.44° C | 100% | 994.7 hPa | 0 mm | - | - | - |
| 1778053351 | 8.89° C | 100% | 994.7 hPa | 0 mm | - | - | - |
| 1778053081 | 8.33° C | 100% | 994.7 hPa | 0 mm | - | - | - |
| 1778052744 | 8.33° C | 100% | 994.8 hPa | 0 mm | - | - | - |
| 1778052456 | 7.78° C | 100% | 994.8 hPa | 0 mm | - | - | - |
| 1778051838 | 7.22° C | 100% | 994.8 hPa | 0 mm | - | - | - |
| 1778051532 | 6.67° C | 100% | 994.8 hPa | 0 mm | - | - | - |
| 1778051278 | 6.11° C | 100% | 994.9 hPa | 0 mm | - | - | - |
| 1778050935 | 5.56° C | 100% | 994.9 hPa | 0 mm | - | - | - |
| 1778050622 | 5° C | 100% | 995 hPa | 0 mm | - | - | - |
* Rain since midnight (hover to see other rain measurements)
** Current wind speed in m/s (hover to see current wind gust speed)